This is the latest recevied weather packets stored in our database for station/object W5GBS-9. If no packets are shown the sender has not sent any weather packets the latest 10 day(s).
| Time | Temp. | Humidity | Pressure | Rain* | Wind** | Luminosity | Snow |
|---|---|---|---|---|---|---|---|
| 1787731976 | 27.78° C | 100% | 1013.9 hPa | 0 mm | - | - | - |
| 1787730535 | 27.78° C | 100% | 1014.3 hPa | 0 mm | - | - | - |
| 1787729814 | 28.33° C | 100% | 1014.5 hPa | 0 mm | - | - | - |
| 1787729093 | 28.33° C | 100% | 1014.3 hPa | 0 mm | - | - | - |
| 1787728373 | 28.89° C | 100% | 1014.1 hPa | 0 mm | - | - | - |
| 1787727651 | 28.89° C | 100% | 1014.2 hPa | 0 mm | - | - | - |
| 1787726210 | 29.44° C | 100% | 1014.4 hPa | 0 mm | - | - | - |
| 1787725489 | 28.89° C | 100% | 1014.2 hPa | 0 mm | - | - | - |
| 1787724770 | 28.89° C | 100% | 1014 hPa | 0 mm | - | - | - |
| 1787724162 | 28.89° C | 100% | 1014 hPa | 0 mm | - | - | - |
| 1787724048 | 28.89° C | 100% | 1014 hPa | 0 mm | - | - | - |
| 1787723328 | 28.89° C | 100% | 1013.8 hPa | 0 mm | - | - | - |
| 1787722607 | 29.44° C | 100% | 1013.6 hPa | 0 mm | - | - | - |
| 1787721886 | 29.44° C | 100% | 1013.6 hPa | 0 mm | - | - | - |
| 1787720445 | 29.44° C | 100% | 1013.5 hPa | 0 mm | - | - | - |
| 1787719725 | 30° C | 100% | 1013.5 hPa | 0 mm | - | - | - |
| 1787719004 | 30° C | 100% | 1013.5 hPa | 0 mm | - | - | - |
| 1787718283 | 30° C | 100% | 1013.3 hPa | 0 mm | - | - | - |
| 1787717563 | 30° C | 100% | 1013.3 hPa | 0 mm | - | - | - |
| 1787716120 | 30.56° C | 100% | 1013.4 hPa | 0 mm | - | - | - |
| 1787715401 | 30.56° C | 100% | 1013.4 hPa | 0 mm | - | - | - |
| 1787714679 | 31.11° C | 100% | 1013.1 hPa | 0 mm | - | - | - |
| 1787713958 | 31.11° C | 100% | 1012.9 hPa | 0 mm | - | - | - |
| 1787713239 | 31.11° C | 100% | 1012.8 hPa | 0 mm | - | - | - |
| 1787711797 | 31.67° C | 100% | 1012.6 hPa | 0 mm | - | - | - |
* Rain latest hour (hover to see other rain measurements)
** Current wind speed in m/s (hover to see current wind gust speed)